Orbital Elements
Epoch 2023 Feb. 25.0 TT = JDT 2460000.5
T 2022 Sept. 15.73120 TT Rudenko
q 3.3678383 (2000.0) P Q
n 0.05359281 Peri. 17.78826 +0.55567976 -0.81848239
a 6.9673082 Node 38.81624 +0.73169518 +0.39808137
e 0.5166227 Incl. 13.46601 +0.39476851 +0.41426778
P 18.4
>From 101 observations 2022 Sept. 24-2023 Jan. 25, mean residual 0".4.
|